Tracking 25709 objects as of 23-May-2022
HD Live streaming from Space Station
objects crossing your sky now

DELTA 1 DEB

Track DELTA 1 DEB now!
10-day predictions


NORAD ID: 39100
Int'l Code: 1977-065GK
Perigee: 464.2 km
Apogee: 1,135.2 km
Inclination: 29.3 °
Period: 100.7 minutes
Semi major axis: 7170 km
RCS: 0.0007 m2 (small)
Launch date: July 14, 1977
Source: United States (US)
Launch site: AIR FORCE EASTERN TEST RANGE (AFETR)

Note: This is SATELLITE DEBRIS
aabbcc
Your satellite tracking list
Your tracking list is empty




NASA's NSSDC Master Catalog

Two Line Element Set (TLE):
1 39100U 77065GK  22142.70532532  .00010697  00000-0  11834-2 0  9998
2 39100  29.2866 290.8594 0467882 223.6637 132.6010 14.29759742516767
Source of the keplerian elements: AFSPC